| time (UTC) | temp C | wind direction | speed KPH | gust KPH | rain 1hr cm | rain 24hr cm | rain mn cm | humidity % | barometer mb |
| 20260502140107 | 29 | 78 | 8.0 | 9.7 | 0.00 | 0.00 | 0.00 | 66 | 1010.5 |
| 20260502130606 | 30 | 60 | 8.0 | 11.3 | 0.00 | 0.00 | 0.00 | 66 | 1009.8 |
| 20260502130106 | 30 | 73 | 8.0 | 11.3 | 0.00 | 0.00 | 0.00 | 67 | 1010.2 |
| 20260502123606 | 30 | 81 | 6.4 | 8.0 | 0.00 | 0.00 | 0.00 | 67 | 1009.8 |
| 20260502123106 | 30 | 102 | 1.6 | 4.8 | 0.00 | 0.00 | 0.00 | 66 | 1009.5 |
| 20260502122606 | 30 | 95 | 6.4 | 9.7 | 0.00 | 0.00 | 0.00 | 66 | 1009.8 |
| 20260502122107 | 30 | 79 | 4.8 | 8.0 | 0.00 | 0.00 | 0.00 | 67 | 1009.5 |
| 20260502121608 | 30 | 94 | 8.0 | 11.3 | 0.00 | 0.00 | 0.00 | 67 | 1009.8 |
| 20260502121106 | 30 | 71 | 4.8 | 9.7 | 0.00 | 0.00 | 0.00 | 67 | 1009.8 |
| 20260502120606 | 30 | 138 | 3.2 | 9.7 | 0.00 | 0.00 | 0.00 | 67 | 1009.8 |
| 20260502120106 | 30 | 92 | 4.8 | 11.3 | 0.00 | 0.00 | 0.00 | 67 | 1009.8 |
| 20260502115606 | 30 | 87 | 4.8 | 9.7 | 0.00 | 0.00 | 0.00 | 66 | 1009.5 |
| 20260502115107 | 30 | 77 | 9.7 | 11.3 | 0.00 | 0.00 | 0.00 | 66 | 1009.8 |
| 20260502114606 | 30 | 89 | 4.8 | 9.7 | 0.00 | 0.00 | 0.00 | 66 | 1009.5 |
| 20260502114107 | 30 | 87 | 6.4 | 9.7 | 0.00 | 0.00 | 0.00 | 66 | 1009.5 |
| 20260502113606 | 30 | 65 | 6.4 | 14.5 | 0.00 | 0.00 | 0.00 | 66 | 1009.5 |
| 20260502113107 | 30 | 84 | 9.7 | 16.1 | 0.00 | 0.00 | 0.00 | 66 | 1009.5 |
| 20260502112606 | 30 | 95 | 9.7 | 17.7 | 0.00 | 0.00 | 0.00 | 66 | 1009.5 |
| 20260502112106 | 30 | 91 | 9.7 | 16.1 | 0.00 | 0.00 | 0.00 | 66 | 1009.5 |
| 20260502111606 | 30 | 91 | 9.7 | 17.7 | 0.00 | 0.00 | 0.00 | 65 | 1009.5 |
| 20260502111107 | 30 | 85 | 11.3 | 16.1 | 0.00 | 0.00 | 0.00 | 65 | 1009.5 |
| 20260502110606 | 30 | 73 | 9.7 | 20.9 | 0.00 | 0.00 | 0.00 | 64 | 1009.5 |
| 20260502110106 | 31 | 95 | 8.0 | 17.7 | 0.00 | 0.00 | 0.00 | 63 | 1009.5 |
| 20260502105606 | 31 | 74 | 8.0 | 14.5 | 0.00 | 0.00 | 0.00 | 60 | 1009.5 |
| 20260502105106 | 31 | 68 | 9.7 | 12.9 | 0.00 | 0.00 | 0.00 | 56 | 1009.1 |
| 20260502104607 | 31 | 67 | 8.0 | 11.3 | 0.00 | 0.00 | 0.00 | 55 | 1009.1 |
| 20260502104106 | 31 | 60 | 9.7 | 11.3 | 0.00 | 0.00 | 0.00 | 54 | 1009.1 |
| 20260502103606 | 31 | 43 | 14.5 | 20.9 | 0.00 | 0.00 | 0.00 | 54 | 1008.8 |
| 20260502103107 | 32 | 41 | 11.3 | 14.5 | 0.00 | 0.00 | 0.00 | 54 | 1008.5 |
| 20260502102607 | 32 | 279 | 4.8 | 14.5 | 0.00 | 0.00 | 0.00 | 54 | 1008.5 |
| 20260502102106 | 32 | 64 | 17.7 | 20.9 | 0.00 | 0.00 | 0.00 | 54 | 1008.5 |
| 20260502101606 | 32 | 56 | 8.0 | 17.7 | 0.00 | 0.00 | 0.00 | 54 | 1008.5 |
| 20260502101106 | 32 | 54 | 12.9 | 16.1 | 0.00 | 0.00 | 0.00 | 55 | 1007.8 |
| 20260502100606 | 32 | 53 | 8.0 | 16.1 | 0.00 | 0.00 | 0.00 | 54 | 1008.1 |
| 20260502100106 | 32 | 86 | 11.3 | 20.9 | 0.00 | 0.00 | 0.00 | 54 | 1008.1 |
| 20260502091106 | 34 | 64 | 14.5 | 20.9 | 0.00 | 0.00 | 0.00 | 49 | 1006.8 |
| 20260502090606 | 35 | 50 | 8.0 | 9.7 | 0.00 | 0.00 | 0.00 | 48 | 1006.8 |
| 20260502090107 | 34 | 48 | 8.0 | 17.7 | 0.00 | 0.00 | 0.00 | 49 | 1006.8 |
| 20260502080106 | 36 | 66 | 12.9 | 17.7 | 0.00 | 0.00 | 0.00 | 44 | 1006.8 |
| 20260502071106 | 37 | 70 | 14.5 | 22.5 | 0.00 | 0.00 | 0.00 | 40 | 1006.8 |
| 20260502070606 | 36 | 71 | 11.3 | 14.5 | 0.00 | 0.00 | 0.00 | 42 | 1006.8 |
| 20260502070106 | 37 | 30 | 12.9 | 17.7 | 0.00 | 0.00 | 0.00 | 40 | 1006.8 |
| 20260502065606 | 37 | 64 | 11.3 | 14.5 | 0.00 | 0.00 | 0.00 | 40 | 1006.8 |
| 20260502065107 | 37 | 109 | 4.8 | 14.5 | 0.00 | 0.00 | 0.00 | 39 | 1006.8 |
| 20260502064606 | 37 | 47 | 16.1 | 17.7 | 0.00 | 0.00 | 0.00 | 40 | 1006.8 |
| 20260502064106 | 37 | 74 | 11.3 | 17.7 | 0.00 | 0.00 | 0.00 | 41 | 1006.8 |
| 20260502063606 | 37 | 68 | 6.4 | 20.9 | 0.00 | 0.00 | 0.00 | 41 | 1006.8 |
| 20260502063106 | 37 | 36 | 9.7 | 24.1 | 0.00 | 0.00 | 0.00 | 40 | 1006.8 |
| 20260502062606 | 37 | 62 | 9.7 | 14.5 | 0.00 | 0.00 | 0.00 | 40 | 1007.1 |
| 20260502062106 | 37 | 63 | 9.7 | 16.1 | 0.00 | 0.00 | 0.00 | 40 | 1007.5 |
| 20260502061606 | 37 | 53 | 14.5 | 24.1 | 0.00 | 0.00 | 0.00 | 41 | 1007.5 |
| 20260502061106 | 36 | 65 | 3.2 | 9.7 | 0.00 | 0.00 | 0.00 | 41 | 1007.1 |
| 20260502060606 | 36 | 60 | 12.9 | 16.1 | 0.00 | 0.00 | 0.00 | 42 | 1007.5 |
| 20260502060107 | 38 | 53 | 14.5 | 16.1 | 0.00 | 0.00 | 0.00 | 40 | 1007.8 |
| 20260502055606 | 39 | 72 | 6.4 | 9.7 | 0.00 | 0.00 | 0.00 | 38 | 1007.8 |
| 20260502055106 | 37 | 8 | 3.2 | 4.8 | 0.00 | 0.00 | 0.00 | 39 | 1007.5 |
| 20260502054606 | 36 | 54 | 1.6 | 12.9 | 0.00 | 0.00 | 0.00 | 41 | 1007.8 |
| 20260502054106 | 36 | 45 | 8.0 | 9.7 | 0.00 | 0.00 | 0.00 | 42 | 1007.8 |
| 20260502053612 | 37 | 64 | 4.8 | 14.5 | 0.00 | 0.00 | 0.00 | 42 | 1007.8 |
| 20260502053106 | 38 | 292 | 4.8 | 8.0 | 0.00 | 0.00 | 0.00 | 39 | 1007.8 |
| 20260502052607 | 37 | 82 | 3.2 | 8.0 | 0.00 | 0.00 | 0.00 | 42 | 1007.8 |
| 20260502052107 | 37 | 5 | 3.2 | 11.3 | 0.00 | 0.00 | 0.00 | 40 | 1008.1 |
| 20260502051606 | 38 | 42 | 9.7 | 14.5 | 0.00 | 0.00 | 0.00 | 40 | 1008.1 |
| 20260502051107 | 38 | 65 | 1.6 | 9.7 | 0.00 | 0.00 | 0.00 | 38 | 1008.5 |
| 20260502050606 | 37 | 285 | 3.2 | 11.3 | 0.00 | 0.00 | 0.00 | 41 | 1008.5 |
| 20260502050106 | 37 | 40 | 1.6 | 9.7 | 0.00 | 0.00 | 0.00 | 42 | 1008.5 |
| 20260502045606 | 37 | 124 | 3.2 | 8.0 | 0.00 | 0.00 | 0.00 | 43 | 1008.5 |
| 20260502045106 | 36 | 69 | 9.7 | 12.9 | 0.00 | 0.00 | 0.00 | 45 | 1008.5 |
| 20260502044606 | 37 | 55 | 1.6 | 8.0 | 0.00 | 0.00 | 0.00 | 45 | 1009.1 |
| 20260502044106 | 37 | 52 | 8.0 | 12.9 | 0.00 | 0.00 | 0.00 | 44 | 1008.8 |
| 20260502043606 | 36 | 302 | 4.8 | 8.0 | 0.00 | 0.00 | 0.00 | 45 | 1009.1 |
| 20260502043106 | 35 | 65 | 6.4 | 9.7 | 0.00 | 0.00 | 0.00 | 48 | 1009.1 |
| 20260502042606 | 35 | 204 | 3.2 | 8.0 | 0.00 | 0.00 | 0.00 | 49 | 1009.5 |
| 20260502042106 | 35 | 244 | 3.2 | 4.8 | 0.00 | 0.00 | 0.00 | 52 | 1009.8 |
| 20260502041606 | 35 | 85 | 6.4 | 16.1 | 0.00 | 0.00 | 0.00 | 51 | 1009.5 |
| 20260502041106 | 34 | 234 | 11.3 | 16.1 | 0.00 | 0.00 | 0.00 | 52 | 1009.8 |
| 20260502040606 | 36 | 171 | 12.9 | 12.9 | 0.00 | 0.00 | 0.00 | 46 | 1009.5 |
| 20260502040106 | 36 | 112 | 1.6 | 8.0 | 0.00 | 0.00 | 0.00 | 45 | 1009.5 |
| 20260502035606 | 36 | 202 | 3.2 | 11.3 | 0.00 | 0.00 | 0.00 | 49 | 1009.8 |
| 20260502035106 | 36 | 133 | 4.8 | 12.9 | 0.00 | 0.00 | 0.00 | 49 | 1010.2 |
| 20260502034606 | 35 | 102 | 8.0 | 14.5 | 0.00 | 0.00 | 0.00 | 50 | 1010.2 |
| 20260502034106 | 35 | 84 | 3.2 | 8.0 | 0.00 | 0.00 | 0.00 | 50 | 1009.8 |
| 20260502033606 | 35 | 157 | 1.6 | 8.0 | 0.00 | 0.00 | 0.00 | 52 | 1010.2 |
| 20260502033106 | 34 | 206 | 3.2 | 8.0 | 0.00 | 0.00 | 0.00 | 54 | 1010.2 |
| 20260502032606 | 34 | 299 | 6.4 | 11.3 | 0.00 | 0.00 | 0.00 | 53 | 1010.2 |
| 20260502032106 | 34 | 265 | 4.8 | 8.0 | 0.00 | 0.00 | 0.00 | 54 | 1010.2 |
| 20260502031606 | 33 | 285 | 8.0 | 9.7 | 0.00 | 0.00 | 0.00 | 56 | 1010.5 |
| 20260502031108 | 33 | 177 | 4.8 | 8.0 | 0.00 | 0.00 | 0.00 | 55 | 1010.2 |
| 20260502030607 | 33 | 156 | 3.2 | 8.0 | 0.00 | 0.00 | 0.00 | 55 | 1010.5 |
| 20260502030106 | 33 | 133 | 6.4 | 8.0 | 0.00 | 0.00 | 0.00 | 56 | 1010.5 |
| 20260502025606 | 33 | 248 | 3.2 | 9.7 | 0.00 | 0.00 | 0.00 | 56 | 1010.5 |
| 20260502025106 | 34 | 116 | 4.8 | 8.0 | 0.00 | 0.00 | 0.00 | 54 | 1010.5 |
| 20260502024606 | 33 | 324 | 0.0 | 1.6 | 0.00 | 0.00 | 0.00 | 55 | 1010.2 |
| 20260502024106 | 33 | 248 | 4.8 | 4.8 | 0.00 | 0.00 | 0.00 | 56 | 1010.5 |
| 20260502023607 | 33 | 301 | 4.8 | 4.8 | 0.00 | 0.00 | 0.00 | 57 | 1010.5 |
| 20260502023106 | 33 | 311 | 4.8 | 8.0 | 0.00 | 0.00 | 0.00 | 56 | 1010.5 |
| 20260502022606 | 33 | 220 | 4.8 | 8.0 | 0.00 | 0.00 | 0.00 | 55 | 1010.5 |
| 20260502022106 | 33 | 196 | 1.6 | 3.2 | 0.00 | 0.00 | 0.00 | 55 | 1010.8 |
| 20260502021606 | 33 | 252 | 3.2 | 4.8 | 0.00 | 0.00 | 0.00 | 56 | 1010.8 |
| 20260502021106 | 32 | 111 | 1.6 | 3.2 | 0.00 | 0.00 | 0.00 | 57 | 1010.8 |
| 20260502020607 | 32 | 221 | 4.8 | 4.8 | 0.00 | 0.00 | 0.00 | 58 | 1011.2 |
| 20260502020106 | 32 | 166 | 9.7 | 11.3 | 0.00 | 0.00 | 0.00 | 57 | 1010.8 |
| 20260502015606 | 32 | 112 | 4.8 | 4.8 | 0.00 | 0.00 | 0.00 | 57 | 1011.2 |
| 20260502015106 | 33 | 205 | 3.2 | 4.8 | 0.00 | 0.00 | 0.00 | 56 | 1010.8 |
| 20260502014607 | 34 | 136 | 3.2 | 8.0 | 0.00 | 0.00 | 0.00 | 54 | 1010.8 |
| 20260502014107 | 34 | 90 | 1.6 | 8.0 | 0.00 | 0.00 | 0.00 | 53 | 1011.2 |
| 20260502013606 | 33 | 78 | 4.8 | 8.0 | 0.00 | 0.00 | 0.00 | 55 | 1011.2 |
| 20260502013106 | 33 | 144 | 9.7 | 11.3 | 0.00 | 0.00 | 0.00 | 56 | 1011.2 |
| 20260502012606 | 33 | 77 | 4.8 | 9.7 | 0.00 | 0.00 | 0.00 | 55 | 1011.2 |
| 20260502012106 | 33 | 99 | 4.8 | 11.3 | 0.00 | 0.00 | 0.00 | 53 | 1011.2 |
| 20260502011606 | 33 | 48 | 4.8 | 4.8 | 0.00 | 0.00 | 0.00 | 55 | 1011.2 |
| 20260502011106 | 33 | 66 | 1.6 | 3.2 | 0.00 | 0.00 | 0.00 | 55 | 1011.2 |
| 20260502010606 | 33 | 51 | 9.7 | 14.5 | 0.00 | 0.00 | 0.00 | 54 | 1011.2 |
| 20260502010106 | 34 | 101 | 4.8 | 4.8 | 0.00 | 0.00 | 0.00 | 52 | 1011.2 |
| 20260502005606 | 34 | 80 | 3.2 | 9.7 | 0.00 | 0.00 | 0.00 | 52 | 1010.8 |
| 20260502005106 | 33 | 96 | 4.8 | 4.8 | 0.00 | 0.00 | 0.00 | 54 | 1010.8 |
| 20260502004606 | 33 | 66 | 6.4 | 8.0 | 0.00 | 0.00 | 0.00 | 54 | 1011.2 |
| 20260502004106 | 33 | 86 | 6.4 | 12.9 | 0.00 | 0.00 | 0.00 | 54 | 1010.8 |
| 20260502003606 | 33 | 67 | 0.0 | 1.6 | 0.00 | 0.00 | 0.00 | 54 | 1010.8 |
| 20260502003106 | 33 | 79 | 1.6 | 9.7 | 0.00 | 0.00 | 0.00 | 54 | 1011.2 |
| 20260502002606 | 33 | 66 | 1.6 | 11.3 | 0.00 | 0.00 | 0.00 | 54 | 1010.8 |
| 20260502002106 | 33 | 56 | 6.4 | 8.0 | 0.00 | 0.00 | 0.00 | 53 | 1011.2 |
| 20260502001606 | 33 | 14 | 8.0 | 9.7 | 0.00 | 0.00 | 0.00 | 55 | 1010.8 |
| 20260502001106 | 33 | 61 | 8.0 | 9.7 | 0.00 | 0.00 | 0.00 | 56 | 1010.8 |
| 20260502000606 | 32 | 98 | 4.8 | 8.0 | 0.00 | 0.00 | 0.00 | 56 | 1011.2 |
| 20260502000106 | 32 | 26 | 1.6 | 8.0 | 0.00 | 0.00 | 0.00 | 58 | 1010.8 |
| 20260501235606 | 32 | 74 | 11.3 | 12.9 | 0.00 | 0.00 | 0.00 | 56 | 1010.8 |
| 20260501235106 | 32 | 35 | 1.6 | 1.6 | 0.00 | 0.00 | 0.00 | 56 | 1010.8 |
| 20260501234606 | 32 | 88 | 6.4 | 9.7 | 0.00 | 0.00 | 0.00 | 56 | 1010.8 |
| 20260501234106 | 31 | 94 | 4.8 | 4.8 | 0.00 | 0.00 | 0.00 | 58 | 1010.8 |
| 20260501233606 | 31 | 54 | 6.4 | 8.0 | 0.00 | 0.00 | 0.00 | 58 | 1010.8 |
| 20260501233106 | 31 | 259 | 3.2 | 3.2 | 0.00 | 0.00 | 0.00 | 59 | 1010.5 |
| 20260501232606 | 32 | 114 | 3.2 | 3.2 | 0.00 | 0.00 | 0.00 | 58 | 1010.8 |
| 20260501232106 | 32 | 72 | 3.2 | 3.2 | 0.00 | 0.00 | 0.00 | 58 | 1010.5 |
| 20260501231606 | 31 | 14 | 1.6 | 3.2 | 0.00 | 0.00 | 0.00 | 59 | 1010.5 |
| 20260501231106 | 31 | 70 | 1.6 | 4.8 | 0.00 | 0.00 | 0.00 | 60 | 1010.5 |
| 20260501230606 | 31 | 83 | 4.8 | 8.0 | 0.00 | 0.00 | 0.00 | 60 | 1010.5 |
| 20260501230106 | 31 | 337 | 1.6 | 8.0 | 0.00 | 0.00 | 0.00 | 61 | 1010.8 |
| 20260501225606 | 31 | 63 | 3.2 | 4.8 | 0.00 | 0.00 | 0.00 | 60 | 1010.5 |
| 20260501225106 | 30 | 290 | 0.0 | 1.6 | 0.00 | 0.00 | 0.00 | 64 | 1010.5 |
| 20260501224607 | 30 | 290 | 3.2 | 3.2 | 0.00 | 0.00 | 0.00 | 65 | 1010.5 |
| 20260501224106 | 30 | 265 | 1.6 | 1.6 | 0.00 | 0.00 | 0.00 | 64 | 1010.5 |
| 20260501223606 | 30 | 265 | 1.6 | 1.6 | 0.00 | 0.00 | 0.00 | 64 | 1010.5 |
| 20260501223106 | 29 | 265 | 0.0 | 1.6 | 0.00 | 0.00 | 0.00 | 65 | 1010.5 |
| 20260501222606 | 29 | 236 | 1.6 | 1.6 | 0.00 | 0.00 | 0.00 | 66 | 1010.5 |
| 20260501222106 | 29 | 236 | 1.6 | 1.6 | 0.00 | 0.00 | 0.00 | 66 | 1010.5 |
| 20260501221606 | 28 | 236 | 0.0 | 1.6 | 0.00 | 0.00 | 0.00 | 68 | 1010.2 |
| 20260501221106 | 28 | 244 | 3.2 | 3.2 | 0.00 | 0.00 | 0.00 | 69 | 1010.5 |
| 20260501220606 | 28 | 304 | 1.6 | 1.6 | 0.00 | 0.00 | 0.00 | 69 | 1010.5 |
| 20260501215606 | 28 | 304 | 0.0 | 1.6 | 0.00 | 0.00 | 0.00 | 70 | 1010.5 |
| 20260501215107 | 28 | 303 | 1.6 | 3.2 | 0.00 | 0.00 | 0.00 | 70 | 1010.5 |
| 20260501214606 | 28 | 291 | 0.0 | 3.2 | 0.00 | 0.00 | 0.00 | 69 | 1010.2 |
| 20260501214106 | 27 | 19 | 0.0 | 1.6 | 0.00 | 0.00 | 0.00 | 70 | 1010.5 |
| 20260501213608 | 27 | 31 | 0.0 | 1.6 | 0.00 | 0.00 | 0.00 | 69 | 1010.2 |
| 20260501213106 | 27 | 294 | 1.6 | 1.6 | 0.00 | 0.00 | 0.00 | 69 | 1010.2 |
| 20260501212606 | 27 | 332 | 0.0 | 0.0 | 0.00 | 0.00 | 0.00 | 69 | 1010.2 |
| 20260501212106 | 28 | 339 | 0.0 | 1.6 | 0.00 | 0.00 | 0.00 | 68 | 1010.5 |
| 20260501211606 | 28 | 332 | 0.0 | 1.6 | 0.00 | 0.00 | 0.00 | 68 | 1010.2 |
| 20260501211106 | 28 | 320 | 1.6 | 3.2 | 0.00 | 0.00 | 0.00 | 68 | 1010.2 |
| 20260501210606 | 28 | 290 | 1.6 | 3.2 | 0.00 | 0.00 | 0.00 | 68 | 1010.2 |
| 20260501210107 | 28 | 289 | 0.0 | 1.6 | 0.00 | 0.00 | 0.00 | 68 | 1010.2 |
| 20260501205606 | 28 | 315 | 1.6 | 1.6 | 0.00 | 0.00 | 0.00 | 68 | 1010.2 |
| 20260501205106 | 28 | 315 | 1.6 | 1.6 | 0.00 | 0.00 | 0.00 | 68 | 1010.2 |
| 20260501204606 | 28 | 295 | 1.6 | 1.6 | 0.00 | 0.00 | 0.00 | 68 | 1010.2 |
| 20260501204106 | 28 | 295 | 1.6 | 1.6 | 0.00 | 0.00 | 0.00 | 68 | 1009.8 |
| 20260501203606 | 28 | 295 | 3.2 | 3.2 | 0.00 | 0.00 | 0.00 | 68 | 1010.2 |
| 20260501203106 | 28 | 304 | 1.6 | 3.2 | 0.00 | 0.00 | 0.00 | 68 | 1009.5 |
| 20260501202607 | 28 | 296 | 0.0 | 1.6 | 0.00 | 0.00 | 0.00 | 68 | 1009.8 |
| 20260501202106 | 28 | 329 | 0.0 | 0.0 | 0.00 | 0.00 | 0.00 | 67 | 1009.5 |
| 20260501201606 | 28 | 344 | 0.0 | 1.6 | 0.00 | 0.00 | 0.00 | 67 | 1009.5 |
| 20260501201110 | 28 | 344 | 0.0 | 0.0 | 0.00 | 0.00 | 0.00 | 67 | 1009.1 |
| 20260501200607 | 28 | 337 | 1.6 | 1.6 | 0.00 | 0.00 | 0.00 | 67 | 1009.5 |
| 20260501200106 | 28 | 39 | 0.0 | 0.0 | 0.00 | 0.00 | 0.00 | 67 | 1009.5 |
| 20260501195607 | 28 | 97 | 0.0 | 1.6 | 0.00 | 0.00 | 0.00 | 67 | 1009.5 |
| 20260501195106 | 28 | 68 | 0.0 | 1.6 | 0.00 | 0.00 | 0.00 | 67 | 1009.1 |
| 20260501194606 | 27 | 58 | 0.0 | 0.0 | 0.00 | 0.00 | 0.00 | 68 | 1009.5 |
| 20260501194107 | 27 | 67 | 0.0 | 1.6 | 0.00 | 0.00 | 0.00 | 68 | 1009.5 |
| 20260501193606 | 27 | 68 | 1.6 | 1.6 | 0.00 | 0.00 | 0.00 | 68 | 1009.1 |
| 20260501193107 | 27 | 67 | 0.0 | 0.0 | 0.00 | 0.00 | 0.00 | 68 | 1009.1 |
| 20260501192606 | 28 | 68 | 0.0 | 0.0 | 0.00 | 0.00 | 0.00 | 68 | 1009.1 |
| 20260501192106 | 28 | 68 | 1.6 | 1.6 | 0.00 | 0.00 | 0.00 | 68 | 1009.1 |
| 20260501191608 | 28 | 68 | 0.0 | 1.6 | 0.00 | 0.00 | 0.00 | 67 | 1009.1 |
| 20260501191106 | 28 | 68 | 1.6 | 1.6 | 0.00 | 0.00 | 0.00 | 67 | 1009.1 |
| 20260501190606 | 28 | 68 | 0.0 | 1.6 | 0.00 | 0.00 | 0.00 | 67 | 1009.1 |
| 20260501190106 | 28 | 57 | 1.6 | 1.6 | 0.00 | 0.00 | 0.00 | 67 | 1009.1 |
| 20260501185606 | 28 | 57 | 1.6 | 3.2 | 0.00 | 0.00 | 0.00 | 66 | 1009.1 |
| 20260501185107 | 28 | 58 | 1.6 | 3.2 | 0.00 | 0.00 | 0.00 | 66 | 1009.1 |
| 20260501184606 | 28 | 74 | 3.2 | 4.8 | 0.00 | 0.00 | 0.00 | 66 | 1009.1 |
| 20260501184106 | 28 | 72 | 3.2 | 4.8 | 0.00 | 0.00 | 0.00 | 65 | 1009.1 |
| 20260501183607 | 28 | 65 | 1.6 | 3.2 | 0.00 | 0.00 | 0.00 | 65 | 1009.1 |
| 20260501183106 | 28 | 313 | 0.0 | 3.2 | 0.00 | 0.00 | 0.00 | 64 | 1009.1 |
| 20260501182606 | 28 | 65 | 0.0 | 1.6 | 0.00 | 0.00 | 0.00 | 64 | 1009.1 |
| 20260501182106 | 28 | 53 | 0.0 | 0.0 | 0.00 | 0.00 | 0.00 | 64 | 1009.5 |
| 20260501181606 | 28 | 54 | 0.0 | 3.2 | 0.00 | 0.00 | 0.00 | 64 | 1009.5 |
| 20260501181106 | 28 | 50 | 1.6 | 3.2 | 0.00 | 0.00 | 0.00 | 64 | 1009.5 |
| 20260501180606 | 28 | 60 | 1.6 | 1.6 | 0.00 | 0.00 | 0.00 | 63 | 1009.5 |
| 20260501180107 | 28 | 57 | 1.6 | 1.6 | 0.00 | 0.00 | 0.00 | 63 | 1009.5 |
| 20260501175607 | 28 | 65 | 0.0 | 0.0 | 0.00 | 0.00 | 0.00 | 63 | 1009.5 |
| 20260501175106 | 28 | 65 | 1.6 | 1.6 | 0.00 | 0.00 | 0.00 | 63 | 1009.5 |
| 20260501174607 | 28 | 93 | 0.0 | 1.6 | 0.00 | 0.00 | 0.00 | 63 | 1009.8 |
| 20260501174106 | 28 | 93 | 0.0 | 0.0 | 0.00 | 0.00 | 0.00 | 64 | 1009.5 |
| 20260501173606 | 28 | 93 | 0.0 | 0.0 | 0.00 | 0.00 | 0.00 | 63 | 1009.8 |
| 20260501173106 | 28 | 93 | 0.0 | 0.0 | 0.00 | 0.00 | 0.00 | 63 | 1009.8 |
| 20260501172607 | 28 | 93 | 0.0 | 0.0 | 0.00 | 0.00 | 0.00 | 63 | 1009.8 |
| 20260501172106 | 28 | 94 | 0.0 | 1.6 | 0.00 | 0.00 | 0.00 | 62 | 1010.2 |
| 20260501171607 | 28 | 70 | 0.0 | 0.0 | 0.00 | 0.00 | 0.00 | 62 | 1010.2 |
| 20260501171107 | 28 | 70 | 1.6 | 3.2 | 0.00 | 0.00 | 0.00 | 62 | 1009.8 |
| 20260501170607 | 28 | 97 | 0.0 | 1.6 | 0.00 | 0.00 | 0.00 | 62 | 1010.2 |
| 20260501170107 | 28 | 97 | 0.0 | 3.2 | 0.00 | 0.00 | 0.00 | 62 | 1010.2 |
| 20260501165606 | 28 | 97 | 1.6 | 1.6 | 0.00 | 0.00 | 0.00 | 62 | 1010.2 |
| 20260501165106 | 28 | 88 | 1.6 | 1.6 | 0.00 | 0.00 | 0.00 | 62 | 1010.5 |
| 20260501164606 | 28 | 106 | 3.2 | 3.2 | 0.00 | 0.00 | 0.00 | 61 | 1010.5 |
| 20260501164106 | 28 | 119 | 1.6 | 1.6 | 0.00 | 0.00 | 0.00 | 62 | 1010.5 |
| 20260501163607 | 28 | 59 | 1.6 | 3.2 | 0.00 | 0.00 | 0.00 | 62 | 1010.2 |
| 20260501163107 | 28 | 72 | 1.6 | 1.6 | 0.00 | 0.00 | 0.00 | 62 | 1010.5 |
| 20260501162606 | 28 | 74 | 0.0 | 3.2 | 0.00 | 0.00 | 0.00 | 62 | 1010.5 |
| 20260501162106 | 28 | 74 | 1.6 | 1.6 | 0.00 | 0.00 | 0.00 | 62 | 1010.5 |
| 20260501161606 | 28 | 49 | 0.0 | 1.6 | 0.00 | 0.00 | 0.00 | 62 | 1010.5 |
| 20260501161107 | 28 | 48 | 3.2 | 9.7 | 0.00 | 0.00 | 0.00 | 61 | 1010.2 |
| 20260501160606 | 29 | 59 | 4.8 | 9.7 | 0.00 | 0.00 | 0.00 | 61 | 1010.2 |
| 20260501160106 | 29 | 70 | 4.8 | 9.7 | 0.00 | 0.00 | 0.00 | 61 | 1010.5 |
| 20260501155607 | 29 | 120 | 1.6 | 8.0 | 0.00 | 0.00 | 0.00 | 61 | 1010.5 |
| 20260501155107 | 29 | 65 | 4.8 | 8.0 | 0.00 | 0.00 | 0.00 | 61 | 1010.8 |
| 20260501154606 | 29 | 87 | 4.8 | 8.0 | 0.00 | 0.00 | 0.00 | 61 | 1010.5 |
| 20260501154107 | 29 | 97 | 3.2 | 8.0 | 0.00 | 0.00 | 0.00 | 61 | 1010.5 |
| 20260501153607 | 29 | 98 | 4.8 | 4.8 | 0.00 | 0.00 | 0.00 | 61 | 1010.8 |
| 20260501153106 | 29 | 118 | 1.6 | 1.6 | 0.00 | 0.00 | 0.00 | 61 | 1010.8 |
| 20260501152607 | 29 | 69 | 3.2 | 4.8 | 0.00 | 0.00 | 0.00 | 61 | 1011.2 |
| 20260501152106 | 29 | 65 | 0.0 | 3.2 | 0.00 | 0.00 | 0.00 | 61 | 1010.8 |
| 20260501151606 | 29 | 69 | 4.8 | 4.8 | 0.00 | 0.00 | 0.00 | 60 | 1011.2 |
| 20260501151106 | 29 | 71 | 3.2 | 4.8 | 0.00 | 0.00 | 0.00 | 60 | 1010.8 |
| 20260501150606 | 29 | 59 | 3.2 | 9.7 | 0.00 | 0.00 | 0.00 | 60 | 1010.8 |
| 20260501150106 | 29 | 70 | 6.4 | 9.7 | 0.00 | 0.00 | 0.00 | 61 | 1011.2 |
| 20260501145606 | 29 | 57 | 3.2 | 4.8 | 0.00 | 0.00 | 0.00 | 61 | 1010.8 |
| 20260501145106 | 29 | 66 | 4.8 | 11.3 | 0.00 | 0.00 | 0.00 | 60 | 1010.8 |
| 20260501144606 | 29 | 90 | 8.0 | 12.9 | 0.00 | 0.00 | 0.00 | 60 | 1011.2 |
| 20260501144107 | 29 | 93 | 8.0 | 9.7 | 0.00 | 0.00 | 0.00 | 60 | 1011.2 |
| 20260501143607 | 30 | 67 | 6.4 | 8.0 | 0.00 | 0.00 | 0.00 | 60 | 1011.2 |
| 20260501143107 | 30 | 70 | 11.3 | 14.5 | 0.00 | 0.00 | 0.00 | 60 | 1010.8 |